Carroll, IA

2:41 AM CST on January 24, 2018 (GMT -0600)
Neu

Weather History for KCIN - January, 2014

Change the Weather History Date:

Sunday, January 19, 2014

  Actual Average Record
Temperature  
Mean Temperature 38 °F -  
Max Temperature 59 °F 30 °F 59 °F (2014)
Min Temperature 17 °F 9 °F -22 °F (1985)
Degree Days  
Heating Degree Days 27    
Moisture  
Dew Point 25 °F    
Average Humidity 69    
Maximum Humidity 100    
Minimum Humidity 29    
Precipitation  
Precipitation 0.00 in - - ()
Sea Level Pressure  
Sea Level Pressure 29.73 in    
Wind  
Wind Speed 15 mph (West)    
Max Wind Speed 23 mph    
Max Gust Speed 29 mph    
Visibility 10 miles    
Events      
Averages and records for this station are not official NWS values.
T = Trace of Precipitation, MM = Missing Value Source: NWS Daily Summary

Daily Weather History Graph

Daily Weather History Graph

Search for Another Location

Airport or City:

Trip Planner

Search our weather history database for the weather conditions in past years. The results will help you decide how hot, cold, wet, or windy it might be!

Date:

Astronomy

Jan. 19, 2014 Rise Set
Actual Time 7:42 AM CST 5:17 PM CST
Civil Twilight 7:12 AM CST 5:48 PM CST
Nautical Twilight 6:37 AM CST 6:22 PM CST
Astronomical Twilight 6:04 AM CST 6:55 PM CST
Moon 9:00 PM CST (1/19) 9:09 AM CST (1/19)
Length of Visible Light 10h 36m
Length of Day
9h 34m
Waning Gibbous, 89% of the Moon is Illuminated
Jan 19
Waning Gibbous
Jan 23
Last Quarter
Jan 30
New
Feb 6
First Quarter
Feb 14
Full

Hourly Weather History & Observations

Time (CST) Temp. Windchill Dew Point Humidity Pressure Visibility Wind Dir Wind Speed Gust Speed Precip Events Conditions
12:15 AM 19.4 °F 5.5 °F 17.6 °F 93% 29.94 in 10.0 mi WSW 15.0 mph - N/A   Partly Cloudy
12:35 AM 19.4 °F 6.6 °F 17.6 °F 93% 29.91 in 10.0 mi WSW 12.7 mph - N/A   Scattered Clouds
12:55 AM 19.4 °F 8.6 °F 17.6 °F 93% 29.89 in 10.0 mi WSW 9.2 mph - N/A   Partly Cloudy
1:15 AM 19.4 °F 6.0 °F 17.6 °F 93% 29.89 in 10.0 mi WSW 13.8 mph - N/A   Clear
1:35 AM 17.6 °F 6.4 °F 17.6 °F 100% 29.89 in 10.0 mi West 9.2 mph 16.1 mph N/A   Clear
1:55 AM 17.6 °F 6.4 °F 17.6 °F 100% 29.89 in 10.0 mi WSW 9.2 mph - N/A   Clear
2:15 AM 17.6 °F 8.2 °F 15.8 °F 93% 29.88 in 10.0 mi WSW 6.9 mph 13.8 mph N/A   Clear
2:35 AM 17.6 °F 8.2 °F 15.8 °F 93% 29.87 in 10.0 mi WSW 6.9 mph - N/A   Clear
2:55 AM 17.6 °F 4.3 °F 17.6 °F 100% 29.86 in 10.0 mi SW 12.7 mph - N/A   Clear
3:15 AM 19.4 °F 2.8 °F 19.4 °F 100% 29.84 in 10.0 mi SW 21.9 mph - N/A   Clear
3:35 AM 21.2 °F 5.6 °F 19.4 °F 93% 29.83 in 10.0 mi SW 20.7 mph - N/A   Clear
3:55 AM 21.2 °F 6.0 °F 19.4 °F 93% 29.83 in 10.0 mi SW 19.6 mph - N/A   Clear
4:15 AM 21.2 °F 6.4 °F 19.4 °F 93% 29.82 in 10.0 mi SW 18.4 mph 25.3 mph N/A   Clear
4:35 AM 21.2 °F 6.0 °F 21.2 °F 100% 29.81 in 10.0 mi SW 19.6 mph - N/A   Clear
4:55 AM 21.2 °F 7.3 °F 21.2 °F 100% 29.81 in 10.0 mi WSW 16.1 mph - N/A   Clear
5:15 AM 23.0 °F 7.2 °F 21.2 °F 93% 29.78 in 10.0 mi SW 23.0 mph - N/A   Clear
5:35 AM 23.0 °F 8.0 °F 21.2 °F 93% 29.78 in 10.0 mi SW 20.7 mph - N/A   Clear
5:55 AM 23.0 °F 9.2 °F 21.2 °F 93% 29.77 in 10.0 mi SW 17.3 mph - N/A   Clear
6:15 AM 24.8 °F 11.1 °F 21.2 °F 86% 29.75 in 10.0 mi SW 18.4 mph 25.3 mph N/A   Clear
6:35 AM 24.8 °F 10.0 °F 21.2 °F 86% 29.74 in 10.0 mi SW 21.9 mph 28.8 mph N/A   Clear
6:55 AM 24.8 °F 10.7 °F 21.2 °F 86% 29.74 in 10.0 mi WSW 19.6 mph 26.5 mph N/A   Clear
7:15 AM 24.8 °F 11.9 °F 21.2 °F 86% 29.75 in 10.0 mi West 16.1 mph - N/A   Clear
7:35 AM 26.6 °F 13.1 °F 21.2 °F 80% 29.73 in 10.0 mi WSW 19.6 mph - N/A   Clear
7:55 AM 24.8 °F 11.9 °F 21.2 °F 86% 29.74 in 10.0 mi WSW 16.1 mph - N/A   Clear
8:15 AM 26.6 °F 15.2 °F 21.2 °F 80% 29.74 in 10.0 mi WSW 13.8 mph - N/A   Clear
8:35 AM 26.6 °F 14.7 °F 23.0 °F 86% 29.73 in 10.0 mi WSW 15.0 mph - N/A   Clear
8:55 AM 28.4 °F 19.7 °F 23.0 °F 80% 29.72 in 10.0 mi WSW 9.2 mph - N/A   Clear
9:15 AM 30.2 °F 20.2 °F 24.8 °F 80% 29.71 in 10.0 mi WSW 12.7 mph 19.6 mph N/A   Clear
9:35 AM 32.0 °F 21.2 °F 24.8 °F 75% 29.72 in 10.0 mi WSW 16.1 mph - N/A   Clear
9:55 AM 33.8 °F 24.8 °F 26.6 °F 75% 29.71 in 10.0 mi WSW 12.7 mph - N/A   Clear
10:15 AM 35.6 °F 27.1 °F 26.6 °F 70% 29.71 in 10.0 mi West 12.7 mph - N/A   Clear
10:35 AM 39.2 °F 29.6 °F 28.4 °F 65% 29.70 in 10.0 mi WSW 19.6 mph - N/A   Clear
10:55 AM 41.0 °F 32.5 °F 28.4 °F 61% 29.70 in 10.0 mi West 17.3 mph - N/A   Clear
11:15 AM 42.8 °F 35.4 °F 28.4 °F 57% 29.70 in 10.0 mi West 15.0 mph - N/A   Clear
11:35 AM 44.6 °F 37.2 °F 28.4 °F 53% 29.69 in 10.0 mi West 17.3 mph - N/A   Clear
11:55 AM 46.4 °F 40.4 °F 30.2 °F 53% 29.68 in 10.0 mi West 13.8 mph - N/A   Clear
12:15 PM 48.2 °F - 30.2 °F 50% 29.66 in 10.0 mi West 12.7 mph - N/A   Clear
12:35 PM 48.2 °F - 30.2 °F 50% 29.66 in 10.0 mi West 15.0 mph - N/A   Clear
12:55 PM 50.0 °F - 30.2 °F 47% 29.63 in 10.0 mi West 15.0 mph - N/A   Clear
1:15 PM 51.8 °F - 30.2 °F 44% 29.61 in 10.0 mi WSW 19.6 mph 26.5 mph N/A   Clear
1:35 PM 51.8 °F - 30.2 °F 44% 29.60 in 10.0 mi West 19.6 mph 25.3 mph N/A   Clear
1:55 PM 53.6 °F - 28.4 °F 38% 29.60 in 10.0 mi West 20.7 mph - N/A   Clear
2:15 PM 55.4 °F - 30.2 °F 38% 29.59 in 10.0 mi WSW 12.7 mph 19.6 mph N/A   Clear
2:35 PM 55.4 °F - 28.4 °F 36% 29.58 in 10.0 mi WSW 21.9 mph - N/A   Clear
2:55 PM 57.2 °F - 28.4 °F 33% 29.58 in 10.0 mi West 21.9 mph - N/A   Clear
3:15 PM 57.2 °F - 28.4 °F 33% 29.58 in 10.0 mi West 16.1 mph 23.0 mph N/A   Clear
3:35 PM 59.0 °F - 30.2 °F 34% 29.59 in 10.0 mi WNW 17.3 mph - N/A   Clear
3:55 PM 59.0 °F - 28.4 °F 31% 29.59 in 10.0 mi WNW 18.4 mph 26.5 mph N/A   Clear
4:15 PM 59.0 °F - 26.6 °F 29% 29.61 in 10.0 mi WNW 23.0 mph - N/A   Clear
4:35 PM 55.4 °F - 26.6 °F 33% 29.61 in 10.0 mi West 16.1 mph 21.9 mph N/A   Clear
4:55 PM 53.6 °F - 26.6 °F 35% 29.63 in 10.0 mi NW 12.7 mph 19.6 mph N/A   Clear
5:15 PM 51.8 °F - 26.6 °F 38% 29.64 in 10.0 mi NW 11.5 mph - N/A   Clear
5:35 PM 48.2 °F - 26.6 °F 43% 29.65 in 10.0 mi NW 11.5 mph - N/A   Clear
5:55 PM 46.4 °F 40.7 °F 28.4 °F 50% 29.66 in 10.0 mi NW 12.7 mph - N/A   Clear
6:15 PM 46.4 °F 39.8 °F 28.4 °F 50% 29.68 in 10.0 mi NW 16.1 mph - N/A   Clear
6:35 PM 46.4 °F 39.2 °F 28.4 °F 50% 29.69 in 10.0 mi WNW 18.4 mph - N/A   Clear
6:55 PM 44.6 °F 37.2 °F 28.4 °F 53% 29.69 in 10.0 mi NW 17.3 mph 23.0 mph N/A   Clear
7:15 PM 44.6 °F 36.6 °F 28.4 °F 53% 29.71 in 10.0 mi NW 19.6 mph 25.3 mph N/A   Clear
7:35 PM 42.8 °F 34.3 °F 28.4 °F 57% 29.72 in 10.0 mi WNW 19.6 mph 26.5 mph N/A   Clear
7:55 PM 42.8 °F 34.0 °F 28.4 °F 57% 29.73 in 10.0 mi WNW 20.7 mph - N/A   Clear
8:15 PM 41.0 °F 31.4 °F 28.4 °F 61% 29.73 in 10.0 mi WNW 21.9 mph 28.8 mph N/A   Clear
8:35 PM 41.0 °F 32.5 °F 28.4 °F 61% 29.74 in 10.0 mi NW 17.3 mph 25.3 mph N/A   Clear
8:55 PM 41.0 °F 32.5 °F 28.4 °F 61% 29.75 in 10.0 mi WNW 17.3 mph 23.0 mph N/A   Clear
9:15 PM 39.2 °F 31.6 °F 28.4 °F 65% 29.76 in 10.0 mi NW 12.7 mph 20.7 mph N/A   Clear
9:35 PM 39.2 °F 31.6 °F 28.4 °F 65% 29.77 in 10.0 mi WNW 12.7 mph - N/A   Clear
9:55 PM 37.4 °F 30.8 °F 28.4 °F 70% 29.77 in 10.0 mi NW 9.2 mph 16.1 mph N/A   Clear
10:15 PM 37.4 °F 29.8 °F 28.4 °F 70% 29.79 in 10.0 mi West 11.5 mph - N/A   Clear
10:35 PM 37.4 °F 30.3 °F 28.4 °F 70% 29.79 in 10.0 mi WNW 10.4 mph - N/A   Clear
10:55 PM 35.6 °F 28.6 °F 28.4 °F 75% 29.80 in 10.0 mi West 9.2 mph - N/A   Clear
11:15 PM 33.8 °F 26.4 °F 28.4 °F 81% 29.80 in 10.0 mi West 9.2 mph - N/A   Clear
11:35 PM 32.0 °F 24.2 °F 28.4 °F 87% 29.80 in 10.0 mi West 9.2 mph - N/A   Clear
11:55 PM 33.8 °F 25.3 °F 30.2 °F 87% 29.80 in 10.0 mi West 11.5 mph - N/A   Clear